Regional Weather Roundup
Issued by NWS

Home | Current Version | Previous Version | Text Only | Print | Product List | Glossary Off
Versions: 1 2 3 4 5 6 7 8 9 10 11 12 13 14 15 16 17 18 19 20 21 22 23 24 25 26 27 28 29 30 31 32 33 34 35 36 37 38 39 40 41 42 43 44 45 46 47 48 49 50

000
ASUS43 KDMX 291108
RWRIA

WEATHER ROUNDUP FOR IOWA
NATIONAL WEATHER SERVICE DES MOINES IA
600 AM CDT FRI JUL 29 2016

NOTE: "FAIR" INDICATES FEW OR NO CLOUDS BELOW 12,000 FEET WITH NO
SIGNIFICANT WEATHER AND/OR OBSTRUCTIONS TO VISIBILITY.

* - THESE STATIONS ARE NOT NWS STATIONS...THUS NOT UNDER NWS
QUALITY CONTROL.  THEY ALSO DO NOT REPORT WEATHER SUCH
AS PRECIPITATION OR FOG.

IAZ001>003-012>014-020>022-031>034-043>046-291200-
   NORTHWEST IOWA

CITY           SKY/WX    TMP DP  RH WIND       PRES   REMARKS
CARROLL *      CLEAR     61  61 100 NW6       30.00F
CHEROKEE *     PTCLDY    60  60 100 N3        30.04R
DENISON *      PTCLDY    61  61 100 CALM      30.00S
LE MARS *      CLOUDY    59  57  94 N6        30.06R
SHELDON *      PTCLDY    55  55 100 N5        30.04S
SIOUX CITY     PTCLDY    62  59  90 N6        30.03R
SPENCER        PTCLDY    59  56  89 N7        30.04S
STORM LAKE *   MOCLDY    61  61 100 N6        30.04R FOG
$$

IAZ055>058-069>071-079>083-090>094-291200-
   SOUTHWEST IOWA

CITY           SKY/WX    TMP DP  RH WIND       PRES   REMARKS
ATLANTIC *     CLEAR     63  61  94 N6        30.00S
CLARINDA *       N/A     66  64  94 MISG      30.00S
COUNCIL BLFS *   N/A     64  64 100 N5        30.01R
CRESTON *      CLOUDY    64  63  94 N10       30.00R
HARLAN  *      PTCLDY    63  63 100 N5        30.04S
LAMONI         CLEAR     63  63 100 N7        29.97S
RED OAK *      CLOUDY    64  64 100 N5        29.99S
SHENANDOAH *     N/A     66  66 100 N6        29.99S
$$

IAZ047>049-059>061-072>074-084-291200-
   CENTRAL IOWA

CITY           SKY/WX    TMP DP  RH WIND       PRES   REMARKS
AMES           CLOUDY    65  62  90 N9        29.97F
ANKENY *         N/A    N/A N/A N/A MISG        N/A
BOONE *          N/A     63  61  94 N8        29.97S
CHARITON *       N/A    N/A N/A N/A MISG        N/A
DES MOINES     CLOUDY    66  62  87 N8        29.95F
GRINNELL*      CLOUDY    64  63  94 N5        29.95F
KNOXVILLE *    MOCLDY    63  61  94 NW6       29.95S
MARSHALLTOWN   CLOUDY    65  64  97 NW6       29.95S
NEWTON *       MOCLDY    63  63 100 NW5       29.95S
PELLA *        PTCLDY    61  60  97 CALM      29.96S
PERRY *          N/A     61  60  98 NW3       29.99S
$$

IAZ004>006-015-016-023>025-035-036-291200-
   NORTH CENTRAL IOWA

CITY           SKY/WX    TMP DP  RH WIND       PRES   REMARKS
ALGONA *       CLEAR     63  61  94 N6        30.01S
ESTHERVILLE    MOCLDY    59  58  96 N6        30.03S
FORT DODGE *   CLEAR     63  61  94 N5        30.00S
MASON CITY     CLOUDY    63  60  90 N12       30.00F
FOREST CITY *  CLOUDY    61  61 100 N7        30.01R
IOWA FALLS *   CLOUDY    65  62  90 N8        29.99S
$$

IAZ007>011-017>019-026>030-037>042-050>054-066-291200-
   NORTHEAST IOWA

CITY           SKY/WX    TMP DP  RH WIND       PRES   REMARKS
CEDAR RAPIDS   CLOUDY    66  66 100 NW8       29.92S
CHARLES CITY * CLOUDY    63  63 100 N7        29.98S FOG
CLINTON *      CLOUDY    68  68 100 NE9       29.92S FOG
DECORAH *      CLOUDY    63  63 100 NE5       29.97S
DUBUQUE        CLOUDY    66  62  87 NE9       29.95S
MONTICELLO *   CLOUDY    68  66  94 NE8       29.92S
OELWEIN *      CLOUDY    66  64  94 NE10      29.95F
WATERLOO       CLOUDY    65  64  97 N6        29.94S
$$

IAZ064-065-067-068-078-291200-
   EAST CENTRAL IOWA

CITY           SKY/WX    TMP DP  RH WIND       PRES   REMARKS
DAVENPORT      CLOUDY    69  68  96 CALM      29.92S FOG
IOWA CITY      CLOUDY    68  65  90 NW8       29.93S
MT. PLEASANT * PTCLDY    66  66 100 CALM      29.92F
MUSCATINE *    CLOUDY    68  66  94 CALM      29.91F
QUAD CITIES    CLOUDY    71  68  90 NW3       29.90S
$$

IAZ062-063-075>077-085>089-095>099-291200-
   SOUTHEAST IOWA

CITY           SKY/WX    TMP DP  RH WIND       PRES   REMARKS
BURLINGTON     CLOUDY    66  66 100 NW3       29.91F
FAIRFIELD *    MOCLDY    63  63 100 NW5       29.93S
KEOKUK *       CLOUDY    66  64  94 NW3       29.91F
OSKALOOSA *    CLOUDY    63  62  97 NW5       29.94F
CENTERVILLE *    N/A     63  63 100 CALM      29.97R
OTTUMWA        CLOUDY    63  61  93 NW7       29.94S
WASHINGTON *   CLOUDY    66  64  94 NW5       29.93S
$$

ABBREVIATIONS USED IN REMARKS
   TC - TEMPERATURES IN CELSIUS
  WCI - WIND CHILL INDEX
   HX - HEAT INDEX
  VSB - VISIBILITY
$$





USA.gov is the U.S. government's official web portal to all federal, state and local government web resources and services.